Regional Weather Roundup
Issued by NWS Goodland, KS

Home | Current Version | Previous Version | Text Only | Print | Product List | Glossary Off
Versions: 1 2 3 4 5 6 7 8 9 10 11 12 13 14 15 16 17 18 19 20 21 22 23 24 25 26 27 28 29 30 31 32 33 34 35 36 37 38 39 40 41 42 43 44 45 46 47 48 49 50

000
ASUS43 KGLD 281359
RWRGLD

GOODLAND FORECAST AREA HOURLY WEATHER ROUNDUP
NATIONAL WEATHER SERVICE GOODLAND KS
800 AM MDT THU MAY 28 2015

...OFFICIAL OBSERVATIONS...

CITY           SKY/WX    TMP DP  RH WIND       PRES   REMARKS
GOODLAND KS    CLOUDY    63  59  87 SW8       30.03R
HILL CITY KS   CLOUDY    61  56  83 E6        30.04R
IMPERIAL NEB   PTSUNNY   61  56  83 S9        29.99F
MCCOOK NEB     CLOUDY    58  56  93 E6        30.01S
AKRON CO       MOSUNNY   57  54  89 W12       30.03R
BURLINGTON CO  CLOUDY    62  56  80 SW18      30.02F
LIMON CO       FOG       50  50 100 S3        30.08S VSB 1/2
$$

...UNOFFICIAL OBSERVATIONS...

CITY           SKY/WX    TMP DP  RH WIND       PRES   REMARKS
GOVE KS          N/A     60  32  34 MISG        N/A
SHARON SPRINGS   N/A     62  59  91 MISG        N/A
$$


USA.gov is the U.S. government's official web portal to all federal, state and local government web resources and services.